MST,Max TemperatureF,Mean TemperatureF,Min TemperatureF,Max Dew PointF,MeanDew PointF,Min DewpointF,Max Humidity, Mean Humidity, Min Humidity, Max Sea Level PressureIn, Mean Sea Level PressureIn, Min Sea Level PressureIn, Max VisibilityMiles, Mean VisibilityMiles, Min VisibilityMiles, Max Wind SpeedMPH, Mean Wind SpeedMPH, Max Gust SpeedMPH,PrecipitationIn, CloudCover, Events, WindDirDegrees
2012-10-1,91,75,59,35,30,26,32,19,12,29.96,29.88,29.83,10,10,10,10,3,17,0.00,0,,158
2012-10-2,95,77,59,35,30,23,36,20,8,29.94,29.84,29.75,10,10,10,17,7,26,0.00,0,,311
2012-10-3,95,77,59,32,27,23,28,17,8,29.92,29.87,29.81,10,10,10,21,7,40,0.00,0,,305
2012-10-4,91,74,57,36,30,27,32,19,11,30.04,29.96,29.90,10,10,10,14,6,,0.00,0,,327
2012-10-5,89,73,57,39,32,25,44,23,11,30.01,29.90,29.82,10,10,10,13,7,,0.00,0,,293
2012-10-6,87,71,55,32,29,26,34,22,11,29.92,29.83,29.75,10,10,10,14,5,,0.00,0,,236
2012-10-7,87,73,59,34,31,29,35,24,14,29.88,29.82,29.76,10,10,10,12,4,,0.00,0,,292
2012-10-8,88,71,54,34,32,29,40,24,14,29.94,29.86,29.79,10,10,10,12,4,,0.00,0,,269
2012-10-9,88,71,54,38,34,30,40,26,15,29.94,29.86,29.79,10,10,10,9,3,,0.00,0,,359
2012-10-10,89,72,55,36,33,29,42,25,13,29.96,29.86,29.76,10,10,10,15,5,22,0.00,0,,125
2012-10-11,88,72,57,39,35,30,38,26,13,29.89,29.82,29.75,10,10,10,17,7,22,0.00,3,Rain,119
2012-10-12,78,68,59,50,40,32,72,39,22,30.02,29.89,29.76,10,10,10,22,9,31,0.00,0,,314
2012-10-13,77,62,48,36,32,28,59,36,17,30.10,30.01,29.93,10,10,10,17,9,25,0.00,0,,300
2012-10-14,84,64,45,31,28,26,48,26,12,30.12,30.03,29.94,10,10,10,14,6,18,0.00,0,,128
2012-10-15,84,70,57,30,26,21,32,21,11,30.02,29.92,29.82,10,10,10,12,8,20,0.00,0,,131
2012-10-16,87,68,48,26,22,17,35,20,8,29.90,29.80,29.71,10,10,10,10,3,,0.00,0,,287
2012-10-17,89,70,51,32,27,21,31,21,12,29.86,29.80,29.73,10,10,10,23,8,26,0.00,0,,285
2012-10-18,87,70,53,45,35,29,40,28,13,29.99,29.89,29.83,10,10,10,22,9,29,0.00,0,,311
2012-10-19,87,69,51,40,27,16,53,25,7,29.95,29.85,29.75,10,10,10,10,3,,0.00,0,,110
2012-10-20,88,71,54,39,28,19,36,22,12,29.84,29.76,29.68,10,10,8,13,5,17,0.00,0,,309
2012-10-21,84,69,54,42,35,31,49,30,16,29.86,29.78,29.71,10,10,10,17,6,24,0.00,0,,102
2012-10-22,81,66,51,41,36,32,48,34,20,29.91,29.84,29.79,10,10,10,7,3,,0.00,0,,148
2012-10-23,84,66,48,36,34,31,50,32,17,29.90,29.82,29.76,10,10,10,9,2,,0.00,0,,340
2012-10-24,84,68,53,40,33,27,43,29,16,29.86,29.80,29.71,10,10,10,24,7,33,0.00,0,,321
2012-10-25,79,62,45,26,12,0,39,18,5,29.99,29.90,29.84,10,10,10,15,7,22,0.00,0,,310
2012-10-26,78,65,52,28,15,9,32,15,8,30.07,29.99,29.90,10,10,10,13,6,20,0.00,0,,124
2012-10-27,71,58,46,30,28,25,48,33,21,30.12,30.01,29.90,10,10,10,17,10,23,0.00,0,,135
2012-10-28,79,65,51,30,24,20,36,24,13,30.07,29.99,29.91,10,10,10,15,7,,0.00,0,,137
2012-10-29,84,63,42,24,21,18,40,22,10,30.13,30.03,29.94,10,10,10,14,3,20,0.00,0,,324
2012-10-30,84,64,43,22,17,9,37,20,7,30.08,29.99,29.90,10,10,10,12,4,,0.00,0,,141
2012-10-31,82,62,43,16,12,10,27,16,6,30.04,29.96,29.89,10,10,10,8,3,,0.00,0,,129